TimePDT,TemperatureF,Dew PointF,Humidity,Sea Level PressureIn,VisibilityMPH,Wind Direction,Wind SpeedMPH,Gust SpeedMPH,PrecipitationIn,Events,Conditions,WindDirDegrees,DateUTC
12:53 AM,35.1,28.0,76,30.44,10.0,SE,4.6,-,N/A,,Clear,130,2013-10-15 07:53:00
1:53 AM,34.0,27.0,75,30.43,10.0,East,5.8,-,N/A,,Clear,80,2013-10-15 08:53:00
2:53 AM,32.0,26.1,79,30.43,-9999.0,NNE,4.6,-,N/A,,Clear,20,2013-10-15 09:53:00
3:53 AM,32.0,27.0,82,30.42,-9999.0,Calm,Calm,-,N/A,,Clear,0,2013-10-15 10:53:00
4:53 AM,30.9,25.0,79,30.42,10.0,Calm,Calm,-,N/A,,Clear,0,2013-10-15 11:53:00
5:53 AM,32.0,26.1,79,30.42,-9999.0,Calm,Calm,-,N/A,,Clear,0,2013-10-15 12:53:00
6:53 AM,28.9,24.1,82,30.43,-9999.0,Calm,Calm,-,N/A,,Clear,0,2013-10-15 13:53:00
7:53 AM,28.9,24.1,82,30.44,-9999.0,North,4.6,-,N/A,,Clear,360,2013-10-15 14:53:00
8:53 AM,37.0,30.0,76,30.44,10.0,Calm,Calm,-,N/A,,Clear,0,2013-10-15 15:53:00
9:53 AM,43.0,32.0,65,30.43,10.0,Calm,Calm,-,N/A,,Clear,0,2013-10-15 16:53:00
10:53 AM,48.0,34.0,58,30.40,10.0,SSE,3.5,-,N/A,,Clear,150,2013-10-15 17:53:00
11:53 AM,52.0,35.1,53,30.38,10.0,Calm,Calm,-,N/A,,Clear,0,2013-10-15 18:53:00
12:53 PM,57.9,35.1,42,30.35,10.0,Calm,Calm,-,N/A,,Clear,0,2013-10-15 19:53:00
1:53 PM,61.0,32.0,34,30.31,10.0,East,4.6,-,N/A,,Clear,100,2013-10-15 20:53:00
2:53 PM,62.1,30.9,31,30.28,10.0,Variable,6.9,-,N/A,,Clear,0,2013-10-15 21:53:00
3:53 PM,61.0,28.9,30,30.25,10.0,SE,6.9,-,N/A,,Clear,140,2013-10-15 22:53:00
4:53 PM,61.0,28.9,30,30.24,10.0,SE,3.5,-,N/A,,Clear,130,2013-10-15 23:53:00
5:53 PM,54.0,35.1,49,30.23,10.0,ENE,4.6,-,N/A,,Clear,70,2013-10-16 00:53:00
6:53 PM,51.1,33.1,50,30.23,10.0,ENE,5.8,-,N/A,,Clear,70,2013-10-16 01:53:00
7:53 PM,48.0,34.0,58,30.22,10.0,NE,6.9,-,N/A,,Clear,50,2013-10-16 02:53:00
8:53 PM,44.1,32.0,63,30.20,10.0,Calm,Calm,-,N/A,,Clear,0,2013-10-16 03:53:00
9:53 PM,45.0,32.0,60,30.19,10.0,Calm,Calm,-,N/A,,Clear,0,2013-10-16 04:53:00
10:53 PM,42.1,30.9,65,30.18,10.0,Calm,Calm,-,N/A,,Clear,0,2013-10-16 05:53:00
11:53 PM,39.9,30.9,70,30.17,10.0,Calm,Calm,-,N/A,,Clear,0,2013-10-16 06:53:00